Temp
-12 -12 -11 -11 -11 -11 -11 -11 -11 -11 -10 -10 -11 -11 -11 -11 -11 -10 -10 -11 -11 -12 -12 -12 -12 -13 -13 -13 -12 -13 -12 -12 -12 -13 -12 -12 -12 -11 -12 -12 -12 -12 -12 -13 -13
-11 -11 -11 -10 -10 -10 -10 -10 -10 -10 -10 -10 -10 -10 -10 -10 -10 -10 -10 -10 -11 -11 -12 -12 -12 -12 -12 -13 -12 -12 -12 -13 -13 -13 -13 -13 -12 -13 -13 -12 -13 -13 -13 -12 -13
-10 -10 -10 -10 -10 -10 -10 -10 -10 -10 -10 -10 -10 -9 -9 -9 -9 -10 -10 -10 -10 -11 -11 -11 -12 -12 -12 -12 -12 -13 -13 -13 -13 -13 -13 -14 -13 -13 -13 -13 -13 -13 -14 -14 -13
-10 -10 -10 -9 -10 -10 -10 -10 -10 -9 -9 -9 -9 -9 -9 -9 -9 -9 -10 -10 -10 -10 -11 -11 -11 -12 -12 -12 -12 -13 -13 -13 -13 -14 -14 -14 -14 -14 -13 -13 -13 -13 -13 -13 -13
-9 -9 -9 -9 -9 -9 -9 -9 -9 -9 -9 -9 -9 -9 -9 -9 -9 -9 -10 -10 -10 -10 -11 -11 -11 -11 -12 -12 -12 -13 -13 -14 -14 -14 -14 -13 -15 -15 -15 -15 -14 -14 -15 -15 -15
-9 -9 -9 -9 -9 -8 -8 -9 -9 -9 -9 -9 -9 -9 -9 -9 -9 -10 -10 -10 -10 -10 -11 -11 -11 -11 -12 -12 -12 -13 -14 -14 -14 -14 -15 -15 -16 -15 -14 -14 -14 -14 -14 -14 -16
-9 -9 -9 -9 -9 -9 -8 -8 -9 -9 -9 -9 -9 -9 -9 -9 -9 -10 -10 -10 -10 -11 -11 -11 -11 -11 -11 -12 -12 -13 -13 -14 -14 -15 -15 -15 -15 -14 -14 -14 -13 -13 -13 -15 -17
-10 -9 -9 -9 -8 -8 -8 -8 -9 -9 -9 -9 -9 -9 -9 -10 -10 -10 -10 -10 -11 -11 -11 -11 -11 -11 -12 -12 -12 -13 -14 -14 -15 -15 -15 -15 -15 -14 -14 -14 -13 -14 -13 -15 -17
-9 -10 -9 -9 -9 -9 -9 -8 -9 -9 -9 -9 -9 -9 -10 -10 -10 -10 -10 -11 -11 -11 -11 -11 -11 -12 -12 -12 -12 -13 -14 -15 -15 -15 -14 -15 -15 -15 -14 -14 -14 -14 -14 -15 -17
-9 -9 -9 -10 -10 -9 -9 -9 -9 -9 -9 -9 -9 -9 -10 -10 -10 -10 -10 -10 -11 -11 -11 -12 -12 -12 -12 -12 -13 -13 -14 -15 -14 -15 -15 -15 -14 -14 -14 -14 -14 -14 -15 -16 -17
-9 -9 -9 -9 -9 -9 -9 -9 -9 -9 -9 -10 -10 -10 -10 -10 -10 -10 -11 -11 -11 -11 -11 -12 -12 -12 -12 -12 -12 -12 -14 -15 -15 -14 -15 -15 -15 -14 -14 -14 -14 -15 -15 -17 -18
-9 -9 -9 -9 -9 -9 -9 -9 -9 -9 -9 -10 -10 -10 -10 -10 -11 -11 -11 -11 -11 -11 -11 -12 -12 -12 -12 -12 -12 -13 -13 -14 -14 -15 -15 -15 -16 -15 -15 -15 -15 -16 -16 -16 -17
-10 -9 -9 -9 -9 -9 -9 -9 -9 -9 -9 -10 -10 -10 -10 -10 -10 -10 -11 -11 -11 -12 -12 -12 -12 -12 -12 -12 -12 -13 -13 -14 -14 -14 -15 -15 -15 -16 -16 -16 -16 -16 -17 -17 -17
-10 -9 -9 -9 -9 -10 -9 -9 -9 -9 -9 -10 -10 -10 -10 -10 -10 -10 -11 -11 -12 -12 -12 -12 -12 -12 -12 -13 -12 -13 -13 -14 -15 -14 -14 -14 -14 -15 -16 -17 -17 -17 -17 -17 -17
-10 -10 -9 -9 -9 -9 -10 -9 -9 -9 -10 -10 -10 -10 -10 -10 -10 -10 -11 -11 -12 -12 -12 -12 -12 -12 -12 -13 -13 -13 -13 -13 -15 -15 -15 -14 -15 -15 -16 -16 -17 -17 -17 -17 -17
-10 -10 -9 -9 -9 -9 -10 -10 -10 -10 -10 -10 -10 -10 -10 -10 -10 -10 -11 -11 -11 -12 -12 -12 -12 -13 -13 -13 -13 -13 -13 -13 -14 -15 -15 -15 -15 -16 -16 -16 -17 -17 -17 -17 -17
-10 -10 -10 -10 -10 -10 -10 -10 -10 -10 -10 -10 -10 -10 -10 -10 -10 -11 -11 -11 -11 -12 -12 -12 -13 -13 -13 -13 -13 -14 -14 -14 -14 -14 -15 -16 -15 -16 -16 -16 -16 -17 -17 -16 -16
-10 -10 -10 -10 -10 -10 -10 -10 -10 -10 -10 -10 -11 -10 -11 -11 -11 -11 -11 -11 -11 -11 -12 -12 -13 -13 -13 -14 -14 -14 -14 -14 -14 -14 -15 -15 -15 -16 -16 -17 -17 -17 -17 -17 -17
-11 -11 -11 -11 -10 -10 -10 -10 -11 -11 -10 -10 -10 -10 -11 -11 -11 -11 -11 -11 -11 -11 -12 -12 -13 -13 -14 -14 -14 -14 -14 -15 -15 -15 -15 -15 -16 -16 -16 -16 -16 -17 -17 -17 -16
-11 -11 -11 -11 -11 -11 -10 -10 -10 -11 -11 -10 -10 -10 -10 -11 -11 -12 -11 -12 -12 -12 -12 -12 -13 -14 -14 -14 -15 -15 -15 -15 -15 -15 -15 -15 -16 -16 -16 -16 -16 -16 -16 -17 -17
-11 -11 -11 -11 -11 -11 -10 -10 -10 -10 -10 -10 -10 -10 -10 -10 -11 -12 -12 -12 -12 -12 -13 -13 -13 -14 -14 -14 -15 -16 -16 -16 -16 -17 -16 -16 -16 -17 -17 -17 -17 -16 -16 -16 -17
-11 -11 -11 -10 -10 -10 -10 -10 -10 -10 -10 -11 -11 -11 -11 -11 -11 -12 -12 -12 -12 -13 -13 -14 -13 -14 -15 -15 -16 -16 -16 -16 -16 -17 -18 -17 -16 -17 -17 -17 -18 -17 -16 -16 -16
-11 -11 -11 -11 -10 -11 -10 -10 -11 -11 -11 -11 -11 -11 -11 -11 -11 -12 -12 -13 -13 -13 -13 -14 -14 -14 -15 -15 -16 -16 -16 -16 -16 -16 -17 -18 -17 -18 -18 -17 -18 -18 -17 -17 -17
-11 -11 -11 -11 -11 -11 -11 -11 -10 -11 -11 -11 -11 -11 -11 -11 -11 -12 -12 -13 -14 -14 -14 -14 -15 -16 -16 -16 -15 -15 -17 -17 -17 -16 -17 -17 -18 -18 -18 -18 -18 -18 -18 -18 -18
-11 -11 -11 -11 -11 -11 -11 -11 -11 -11 -12 -12 -12 -11 -11 -11 -12 -13 -13 -13 -14 -14 -15 -14 -14 -15 -16 -16 -16 -16 -16 -17 -17 -17 -16 -17 -17 -17 -18 -18 -18 -18 -18 -18 -18
-11 -11 -12 -12 -12 -12 -12 -12 -12 -12 -12 -12 -12 -12 -12 -12 -13 -13 -13 -14 -14 -15 -15 -15 -15 -15 -15 -16 -16 -16 -17 -17 -17 -17 -16 -17 -17 -17 -17 -17 -17 -18 -18 -18 -18
-12 -11 -12 -12 -12 -12 -12 -12 -12 -12 -12 -12 -12 -13 -13 -13 -13 -13 -14 -14 -15 -15 -15 -15 -16 -16 -15 -16 -15 -16 -17 -17 -17 -17 -17 -17 -17 -17 -18 -18 -18 -18 -18 -18 -18
Height
5851 5849 5848 5847 5846 5844 5842 5840 5839 5837 5835 5832 5830 5827 5825 5823 5820 5818 5816 5812 5808 5803 5799 5796 5791 5786 5782 5779 5778 5777 5776 5775 5774 5772 5771 5769 5768 5767 5766 5768 5766 5764 5764 5764 5765
5853 5851 5850 5849 5847 5845 5843 5841 5839 5837 5835 5833 5830 5828 5825 5823 5820 5818 5816 5811 5806 5801 5797 5792 5787 5784 5781 5778 5775 5773 5770 5769 5768 5767 5766 5763 5763 5761 5759 5758 5757 5757 5755 5754 5755
5856 5854 5852 5850 5849 5846 5844 5842 5840 5838 5835 5833 5830 5828 5826 5824 5822 5819 5815 5811 5806 5801 5795 5791 5786 5782 5779 5776 5773 5769 5766 5764 5762 5762 5758 5757 5758 5755 5753 5751 5749 5748 5746 5744 5741
5858 5856 5854 5852 5850 5848 5845 5843 5840 5838 5836 5834 5831 5829 5827 5825 5824 5819 5815 5811 5806 5801 5796 5790 5786 5781 5777 5773 5771 5768 5764 5761 5760 5758 5756 5754 5751 5748 5746 5743 5739 5735 5733 5731 5728
5861 5858 5856 5854 5852 5849 5847 5845 5843 5841 5838 5836 5833 5830 5828 5826 5823 5818 5814 5810 5807 5802 5797 5792 5787 5781 5776 5772 5769 5768 5763 5760 5759 5757 5753 5748 5744 5741 5738 5733 5728 5724 5720 5716 5714
5862 5860 5857 5855 5853 5851 5849 5847 5844 5842 5840 5837 5834 5832 5829 5827 5822 5818 5814 5810 5806 5802 5797 5792 5786 5781 5776 5772 5768 5765 5761 5759 5756 5751 5747 5745 5741 5736 5732 5727 5724 5717 5709 5700 5700
5862 5860 5858 5856 5854 5852 5850 5848 5845 5842 5840 5837 5834 5832 5829 5827 5821 5817 5813 5810 5806 5802 5797 5792 5787 5781 5777 5771 5767 5764 5759 5755 5750 5746 5744 5739 5735 5731 5728 5721 5713 5709 5701 5692 5689
5862 5860 5858 5856 5854 5852 5850 5848 5845 5842 5839 5836 5833 5830 5828 5824 5821 5817 5812 5808 5804 5801 5796 5791 5786 5781 5776 5771 5766 5762 5758 5752 5747 5744 5739 5737 5733 5727 5725 5719 5711 5705 5694 5682 5673
5862 5860 5858 5855 5853 5850 5849 5847 5844 5841 5838 5835 5832 5829 5826 5822 5819 5816 5812 5808 5804 5800 5795 5790 5785 5780 5775 5769 5765 5760 5757 5750 5744 5742 5737 5736 5733 5728 5722 5716 5710 5699 5690 5679 5671
5862 5860 5857 5855 5852 5850 5847 5844 5842 5840 5837 5834 5830 5828 5823 5821 5818 5815 5813 5809 5804 5799 5794 5790 5784 5780 5774 5769 5764 5759 5755 5749 5743 5742 5737 5736 5732 5727 5720 5712 5706 5697 5688 5680 5672
5863 5860 5858 5855 5853 5850 5847 5844 5841 5838 5834 5831 5828 5825 5822 5820 5817 5815 5811 5807 5802 5798 5794 5789 5784 5779 5774 5769 5763 5759 5755 5748 5744 5740 5737 5735 5732 5725 5718 5711 5705 5697 5689 5682 5676
5862 5860 5857 5855 5853 5851 5848 5843 5841 5838 5833 5829 5826 5823 5820 5817 5814 5811 5808 5805 5801 5797 5792 5788 5782 5777 5773 5769 5763 5758 5753 5748 5743 5740 5736 5733 5730 5724 5717 5709 5704 5697 5691 5683 5677
5862 5860 5857 5854 5851 5849 5847 5844 5840 5836 5833 5830 5826 5822 5818 5815 5811 5807 5804 5800 5796 5793 5790 5785 5781 5777 5773 5768 5763 5758 5753 5748 5743 5738 5735 5729 5725 5722 5717 5710 5704 5699 5693 5684 5678
5862 5860 5857 5854 5853 5848 5846 5843 5840 5837 5833 5831 5825 5822 5819 5815 5811 5805 5800 5796 5793 5789 5785 5783 5779 5774 5770 5765 5761 5756 5751 5747 5742 5737 5732 5727 5724 5720 5714 5710 5706 5701 5695 5689 5682
5861 5859 5857 5854 5851 5848 5846 5842 5839 5836 5832 5830 5825 5821 5817 5814 5810 5804 5798 5794 5789 5785 5783 5779 5775 5771 5767 5764 5759 5756 5751 5746 5741 5737 5731 5727 5723 5717 5711 5709 5706 5703 5699 5692 5688
5860 5858 5856 5853 5850 5847 5844 5841 5837 5835 5829 5826 5822 5818 5814 5810 5807 5802 5796 5791 5787 5782 5777 5775 5771 5769 5765 5760 5757 5752 5749 5745 5740 5736 5731 5726 5723 5718 5713 5711 5708 5705 5701 5697 5692
5858 5856 5854 5851 5849 5846 5843 5839 5836 5831 5829 5825 5820 5816 5812 5808 5804 5799 5795 5789 5784 5779 5775 5770 5766 5763 5760 5756 5753 5749 5746 5742 5739 5734 5731 5725 5721 5718 5715 5712 5709 5704 5701 5698 5695
5855 5853 5851 5848 5846 5843 5839 5837 5833 5829 5824 5821 5817 5814 5809 5804 5801 5796 5791 5786 5781 5776 5772 5769 5763 5759 5755 5752 5749 5746 5743 5740 5735 5733 5729 5724 5721 5718 5714 5712 5708 5705 5702 5699 5697
5854 5850 5847 5845 5843 5839 5836 5832 5829 5825 5822 5818 5814 5810 5805 5799 5795 5790 5786 5782 5777 5772 5768 5762 5761 5753 5750 5747 5745 5741 5738 5735 5731 5728 5725 5723 5719 5717 5713 5710 5708 5705 5702 5699 5698
5851 5848 5845 5841 5840 5836 5833 5828 5822 5820 5817 5813 5808 5805 5799 5794 5790 5785 5780 5777 5772 5767 5761 5757 5756 5750 5744 5741 5737 5735 5732 5728 5726 5723 5721 5719 5717 5714 5711 5708 5706 5704 5701 5699 5697
5847 5845 5842 5838 5836 5832 5828 5823 5818 5814 5812 5809 5803 5799 5794 5789 5785 5781 5778 5773 5768 5763 5758 5752 5749 5746 5739 5735 5731 5728 5724 5721 5718 5716 5714 5713 5714 5710 5707 5704 5702 5701 5698 5696 5694
5841 5839 5837 5834 5831 5827 5824 5819 5816 5811 5807 5803 5799 5794 5790 5785 5781 5778 5774 5768 5763 5757 5753 5749 5745 5739 5735 5729 5724 5721 5717 5713 5709 5708 5706 5704 5708 5705 5702 5699 5697 5696 5695 5693 5691
5835 5833 5830 5827 5823 5821 5818 5814 5810 5805 5801 5797 5792 5788 5784 5780 5776 5772 5767 5764 5757 5752 5746 5741 5738 5731 5728 5725 5719 5715 5711 5706 5702 5700 5699 5695 5698 5696 5696 5693 5690 5689 5687 5687 5686
5828 5825 5824 5821 5818 5815 5811 5808 5804 5800 5795 5791 5787 5782 5778 5774 5770 5766 5760 5756 5751 5746 5741 5736 5733 5727 5723 5717 5711 5709 5704 5699 5695 5693 5691 5688 5685 5685 5686 5685 5683 5681 5679 5679 5677
5820 5818 5815 5813 5811 5808 5804 5800 5797 5794 5790 5785 5782 5777 5773 5769 5764 5759 5755 5750 5745 5740 5735 5729 5727 5719 5717 5711 5705 5701 5698 5693 5689 5687 5679 5684 5677 5677 5676 5675 5674 5672 5671 5669 5668
5811 5810 5809 5805 5803 5801 5797 5794 5790 5787 5784 5780 5776 5771 5767 5763 5758 5752 5747 5743 5739 5734 5728 5724 5719 5713 5712 5704 5698 5695 5691 5685 5682 5678 5674 5671 5669 5668 5667 5666 5664 5664 5662 5661 5659
5801 5801 5800 5797 5794 5792 5790 5786 5783 5779 5776 5772 5769 5765 5761 5756 5750 5745 5741 5735 5730 5726 5721 5717 5711 5705 5703 5697 5692 5688 5684 5679 5675 5670 5666 5663 5662 5659 5658 5657 5656 5654 5653 5651 5649
Wind_Speed
19 17 15 14 15 16 15 16 16 16 17 17 17 15 15 15 17 19 21 24 21 20 20 20 21 17 19 20 19 19 21 22 23 25 28 30 30 32 35 36 37 40 42 41 42
24 22 20 18 16 16 16 16 15 17 18 17 16 16 17 17 20 21 23 27 25 24 24 26 24 20 17 20 21 23 22 22 24 25 27 29 30 33 38 40 41 42 45 48 47
25 22 21 19 17 16 15 15 15 16 18 17 18 19 18 19 20 21 22 26 29 26 25 25 25 23 20 19 16 17 17 21 22 22 23 26 29 33 36 39 42 44 46 49 53
24 25 24 22 20 18 16 17 17 18 18 18 18 17 17 18 20 21 21 22 25 28 26 26 26 25 22 20 20 15 12 14 16 18 24 27 32 35 37 37 37 43 46 46 47
21 22 22 22 20 20 18 18 18 17 17 16 16 16 16 17 17 18 18 20 22 26 27 25 25 26 25 24 19 15 15 16 18 24 27 27 18 17 18 21 25 28 32 33 33
17 17 19 19 20 18 17 15 15 16 16 16 17 19 19 19 17 17 18 19 19 21 24 25 26 25 22 23 24 20 18 19 23 27 17 14 17 20 26 30 32 33 36 43 38
16 15 15 17 17 19 16 15 15 14 15 16 15 18 18 20 19 19 18 18 19 19 19 21 24 26 23 23 22 20 21 25 29 21 14 24 29 27 26 30 24 26 33 41 33
17 17 15 15 15 14 16 16 16 16 15 14 15 17 16 17 18 19 21 21 20 19 19 19 20 22 24 21 20 21 22 25 26 13 22 24 25 27 26 26 22 25 27 38 23
17 18 18 17 18 16 16 15 15 16 17 16 18 18 18 17 17 20 23 23 22 20 19 19 18 18 19 21 21 21 23 27 11 11 15 17 25 28 32 18 23 23 21 23 15
18 22 21 18 19 20 21 21 19 17 18 17 18 19 20 19 21 20 22 24 26 24 21 19 17 16 17 19 19 21 24 26 6 7 9 9 15 24 31 24 28 25 17 17 10
19 20 21 21 19 21 23 22 25 23 23 21 20 22 22 23 25 23 22 23 26 27 27 22 19 16 16 17 17 19 21 23 3 3 3 7 11 16 21 24 25 27 24 13 11
17 18 21 22 17 20 20 23 25 26 25 22 20 19 21 24 24 24 25 22 22 25 25 24 21 18 18 18 17 16 20 22 2 2 5 8 10 11 14 15 19 24 23 21 15
13 17 21 21 19 21 21 22 24 25 24 24 21 19 21 21 22 25 25 25 24 23 23 23 22 21 18 20 19 17 17 19 18 10 6 9 11 11 7 9 14 17 22 21 19
12 15 20 22 18 20 19 23 22 23 25 26 25 23 23 23 23 23 25 26 23 23 22 21 20 20 21 20 19 18 16 17 19 19 14 18 15 18 12 8 12 13 21 18 16
14 14 18 19 18 18 17 20 22 23 24 24 25 26 25 25 27 28 28 28 27 25 23 23 20 20 19 21 20 19 19 18 17 17 19 17 13 17 13 12 13 14 14 16 15
16 16 17 19 20 21 21 22 24 23 23 23 22 25 25 25 30 32 32 32 29 27 25 23 22 19 19 20 20 20 19 18 18 18 18 16 15 16 17 14 11 12 11 10 15
19 19 20 16 20 22 25 25 24 23 21 23 22 24 25 25 29 32 32 32 30 29 26 26 25 24 23 23 22 20 20 19 19 19 16 18 15 14 12 11 13 15 16 17 15
24 24 22 20 21 25 29 28 26 26 23 26 24 27 26 26 25 30 29 32 30 32 31 26 25 26 24 24 22 23 22 23 19 21 21 18 18 13 14 12 12 13 13 14 14
24 26 26 26 28 31 34 34 32 29 26 26 27 30 30 30 29 30 30 32 31 32 33 32 24 28 26 25 27 25 24 23 24 22 22 19 17 18 17 15 14 13 12 12 12
26 25 28 32 31 34 36 36 35 31 27 28 32 34 34 33 31 30 31 33 34 32 31 33 29 27 28 27 28 27 28 27 25 27 24 21 16 19 18 16 17 16 15 13 12
31 28 30 33 35 37 37 33 33 29 27 31 32 34 35 35 32 31 32 36 37 37 36 36 32 28 31 32 31 29 30 33 32 26 28 26 22 17 17 19 18 18 16 15 14
35 32 32 34 33 33 33 35 33 31 32 33 34 35 35 35 35 33 35 36 38 39 37 39 38 32 28 31 33 32 34 38 39 32 27 30 22 24 21 19 22 19 18 18 18
34 34 36 33 33 31 31 34 35 32 30 32 33 32 33 34 35 35 37 40 40 41 41 40 39 40 34 34 35 34 35 36 37 35 31 34 27 26 27 24 25 24 24 22 23
34 37 36 34 31 32 32 31 33 33 32 32 33 30 33 35 37 36 38 40 40 40 42 45 38 37 38 38 41 34 33 34 36 36 38 37 34 32 29 26 28 30 31 28 28
38 39 38 37 34 32 31 31 32 34 32 32 32 33 34 35 35 34 37 39 38 38 39 41 41 39 37 40 39 37 33 34 37 36 39 28 40 39 36 33 31 31 32 32 31
41 40 39 32 34 34 35 31 33 35 34 36 34 34 34 35 35 37 38 40 39 38 39 40 42 42 37 38 39 34 32 36 36 35 35 34 34 35 36 35 35 34 32 31 34
41 39 35 34 34 32 34 36 34 36 38 36 34 36 37 37 40 41 40 40 39 41 41 40 42 41 40 40 40 36 33 32 32 32 29 29 27 28 29 30 30 32 33 33 36
Wind_Direction
51 57 58 52 44 40 38 36 47 44 37 38 38 37 39 38 39 32 25 17 7 6 5 357 350 343 328 325 319 300 281 276 272 270 268 269 271 270 267 264 263 262 258 254 255
47 51 53 53 49 45 39 43 40 34 33 36 36 39 44 42 34 32 24 24 19 17 12 11 6 355 336 317 313 310 295 283 278 278 278 275 273 272 271 268 264 261 261 260 257
46 45 41 42 43 42 42 36 35 31 34 35 35 33 35 28 27 26 21 21 21 20 20 13 11 3 360 351 337 320 302 284 279 282 284 283 279 276 274 272 269 268 269 264 261
37 40 41 40 40 37 39 37 36 38 41 40 36 30 30 27 23 17 15 16 17 20 18 16 14 11 5 1 357 348 328 307 299 296 296 303 302 299 294 290 286 281 279 274 267
30 29 29 33 35 36 34 35 33 34 34 31 27 22 16 14 12 14 9 10 11 18 20 17 19 17 10 7 10 357 336 328 330 333 322 321 330 333 319 299 299 301 297 288 278
20 27 23 21 20 26 30 25 25 25 21 18 18 14 10 6 3 1 2 2 7 15 18 17 11 16 13 8 6 2 345 338 339 338 353 17 360 343 340 326 319 309 295 283 276
5 7 9 11 13 14 11 15 10 10 10 13 23 24 21 14 9 358 1 358 1 6 9 14 13 12 23 15 0 352 343 345 344 350 32 24 3 343 344 353 313 294 293 288 274
10 9 0 356 353 356 3 359 0 359 351 352 1 9 9 15 15 6 1 357 356 358 358 1 12 13 8 10 1 350 347 347 350 60 50 32 5 11 4 354 351 343 320 316 278
10 15 8 8 3 350 343 349 349 341 345 334 339 346 349 354 1 3 2 360 357 355 353 353 359 7 6 6 9 354 351 352 24 72 60 31 24 32 30 15 20 17 2 346 332
13 8 14 13 5 6 4 354 341 338 336 322 321 327 332 338 344 350 357 358 355 352 349 349 344 349 3 6 358 0 356 357 104 84 57 42 24 11 26 25 5 11 357 351 350
16 14 24 21 16 9 10 6 4 354 351 344 331 329 331 335 335 336 345 350 348 350 347 349 344 343 353 1 359 0 357 6 155 69 32 17 3 11 6 24 9 4 9 348 341
18 28 21 17 14 13 9 14 13 9 3 2 353 350 341 339 340 337 334 335 338 342 346 344 343 342 343 352 349 350 359 9 345 254 313 326 345 5 360 17 16 10 27 16 357
25 19 18 11 10 8 11 5 2 7 11 7 6 358 353 350 349 342 337 330 328 332 338 339 341 343 340 341 342 339 344 356 358 307 291 321 317 333 1 1 345 18 5 9 22
4 3 7 1 2 2 358 358 357 0 7 10 8 3 1 358 354 352 344 335 329 328 329 334 337 341 338 333 336 331 326 339 347 354 312 309 321 341 356 16 30 12 2 351 18
4 4 4 3 358 355 354 355 352 353 2 2 6 5 8 3 359 353 348 342 338 331 327 325 329 334 339 329 326 327 324 323 331 338 346 354 359 15 23 10 352 346 1 28 25
359 358 356 352 0 0 354 348 345 345 352 353 357 358 354 358 358 353 349 348 346 338 328 322 318 320 324 326 322 319 318 316 319 319 321 335 354 12 28 32 23 25 17 4 351
341 341 343 341 345 346 346 345 341 337 336 345 344 350 347 342 350 350 346 346 345 338 334 324 315 310 311 317 320 313 312 305 308 306 310 316 335 354 14 22 24 30 40 39 17
328 329 329 333 334 339 341 338 336 333 327 333 336 340 341 338 334 340 339 341 344 341 338 331 316 306 302 303 310 311 307 306 299 302 299 307 315 330 334 348 358 1 10 21 29
330 322 321 324 327 331 331 329 328 327 323 326 328 333 333 335 332 337 338 339 340 340 337 335 328 313 307 301 300 305 305 299 295 294 293 294 301 306 315 327 334 338 342 353 2
320 318 315 318 324 324 324 322 320 320 320 325 328 331 330 330 330 333 336 335 336 336 332 330 333 318 306 300 297 298 298 296 293 294 291 290 292 297 299 299 305 313 317 320 327
312 312 313 316 317 318 324 324 329 325 324 324 325 326 327 328 328 329 332 333 334 333 331 328 333 326 319 312 301 294 291 289 284 279 285 284 285 286 288 288 287 295 297 307 314
309 310 314 317 319 311 319 320 323 325 324 324 324 325 328 327 328 331 330 330 332 330 332 329 332 328 322 312 305 301 297 293 289 273 274 279 276 282 281 279 283 286 283 287 295
305 309 314 320 312 316 313 316 319 318 320 319 323 324 327 330 328 329 332 333 331 330 329 329 330 323 327 322 313 310 304 297 291 286 275 273 277 278 278 276 282 284 288 290 287
303 308 310 314 314 311 308 310 314 315 319 319 322 322 325 330 328 329 330 329 329 328 326 326 330 323 328 327 321 321 312 304 297 297 295 274 268 270 272 274 274 281 283 288 289
302 306 307 309 310 307 304 308 312 314 317 320 322 321 323 323 326 326 325 325 327 327 326 328 329 322 326 326 322 320 317 308 303 301 294 294 278 274 274 272 275 273 278 285 286
298 301 303 308 306 301 301 309 310 310 317 320 320 322 324 322 324 327 325 323 324 327 325 327 324 322 325 323 322 321 315 309 306 305 302 295 291 284 279 279 280 279 280 281 285
297 298 298 304 296 295 298 306 306 310 312 311 316 321 323 325 328 326 324 323 321 323 322 322 321 320 324 319 320 318 318 310 306 305 305 298 292 289 286 284 283 282 286 287 290